Starlink 32276

operational
NORAD ID: 60944 Int'l Des: 2024-155 Owner: SPXS Country: US Constellation: starlink
LEOCIRCULAR

About Starlink 32276

Description loading...

Live Position

Loading 3D Globe...

Upcoming Passes

Altitude History

Altitude vs Time

uPlot chart will show altitude changes over time

Two-Line Element Set

1 60944U 24155W 25259.59708109 -.00001705 00000-0 -45479-4 0 9990
2 60944 53.1602 218.5097 0001110 101.7289 258.3836 15.30187491 59733
Epoch: Sep 16, 2025 • Age: 15 hours

Current Status

Altitude 489.0 km
Velocity 7.62 km/s
Sub-Earth Point -39.67°S, 94.29°E
Launch Date Aug 31, 2024
Age 1 years
Type internet

Technical Details

Classification Payload
Mass 730.00 kg
Dry Mass 700.00 kg
Total Mass 730.00 kg
Length 0.30 m
Diameter 4.10 m
Span 29.00 m
Shape Box + pan
Manufacturer SPXS
Bus Type Starlink V2M
Phase Status In Orbit
Owner/State SPXS/US

Large Constellations

Loading constellations...